Location: St Paul
(33.4390°N, 83.7350°W)
Time: 07:31:03
(UTC-04:00)

ALOS - Pass Details

Date: 06 October 2017
Orbit: 685 x 686 km, 97.8° (Epoch: 16 October)

Event Time Altitude Azimuth Distance (km) Brightness Sun altitude
Rises 20:15:50 0° 170° (S) 3,033 5.5 -14.1°
Reaches altitude 10° 20:18:04 10° 171° (S) 2,121 4.7 -14.5°
Maximum altitude 20:22:43 80° 258° (WSW) 700 2.4 -15.5°
Drops below altitude 10° 20:27:23 10° 346° (NNW) 2,134 5.0 -16.5°
Sets 20:29:38 0° 347° (NNW) 3,054 5.8 -16.9°
